Location: Newark
(49.3000°N, 9.4667°E)
Time: 10:59:05
(UTC+00:00)

Transit 2A Rocket - Pass Details

Date: 28 May 2019
Orbit: 586 x 917 km, 66.7° (Epoch: 18 June)

Event Time Altitude Azimuth Distance (km) Brightness Sun altitude
Rises 01:37:51 0° 315° (NW) 3,395 8.5 -12.9°
Reaches altitude 10° 01:40:59 10° 299° (WNW) 2,396 7.5 -12.6°
Maximum altitude 01:44:51 20° 254° (WSW) 1,723 6.4 -12.3°
Enters shadow 01:46:47 16° 226° (SW) 1,860 6.4 -12.1°
